Printer-friendly version

IAU Minor Planet Center

Minor Planet Center

MPEC 2005-N58 : 2005 NX44

The following Minor Planet Electronic Circular may be linked-to from your own Web pages, but must not otherwise be redistributed electronically.


Read MPEC 2005-N57 Read MPEC 2005-N59


M.P.E.C. 2005-N58                                Issued 2005 July 11, 12:14 UT

     The Minor Planet Electronic Circulars contain information on unusual
         minor planets and routine data on comets.  They are published
   on behalf of Commission 20 of the International Astronomical Union by the
          Minor Planet Center, Smithsonian Astrophysical Observatory,
                          Cambridge, MA 02138, U.S.A.

                  Supported in part by the Brinson Foundation
             Prepared using the Tamkin Foundation Computer Network

                              MPC@CFA.HARVARD.EDU
          URL http://cfa-www.harvard.edu/iau/mpc.html  ISSN 1523-6714

                                   2005 NX44

Observations:
     K05N44X* C2005 07 10.36943 23 07 29.10 -10 24 54.6          18.2 V EN058703
     K05N44X  C2005 07 10.37587 23 07 26.83 -10 24 58.1          18.1 V EN058703
     K05N44X  C2005 07 10.38228 23 07 24.56 -10 25 01.2          18.0 V EN058703
     K05N44X  C2005 07 10.38870 23 07 22.26 -10 25 04.8          18.2 V EN058703
     K05N44X  C2005 07 10.43012 23 07 07.46 -10 25 24.3          17.9 V EN058703
     K05N44X  C2005 07 10.43741 23 07 04.87 -10 25 28.1          17.9 V EN058703
     K05N44X  C2005 07 10.44476 23 07 02.20 -10 25 31.8          18.1 V EN058703
     K05N44X  C2005 07 10.45206 23 06 59.61 -10 25 35.4          17.8 V EN058703
     K05N44X 2C2005 07 11.32074 23 01 53.43 -10 32 37.6          17.5 R EN058H06
     K05N44X 2C2005 07 11.32454 23 01 52.02 -10 32 39.4          17.7 R EN058H06
     K05N44X 2C2005 07 11.32833 23 01 50.69 -10 32 41.3          17.8 R EN058H06
     K05N44X  C2005 07 11.34852 23 01 43.47 -10 32 50.8          18.8 R EN058854
     K05N44X  C2005 07 11.34948 23 01 43.12 -10 32 50.5          18.8 R EN058854
     K05N44X  C2005 07 11.35043 23 01 42.84 -10 32 51.1          18.8 R EN058854
     K05N44X 5C2005 07 11.36939 23 01 36.11 -10 33 01.4          17.8 R EN058673
     K05N44X  C2005 07 11.37230 23 01 35.00 -10 33 02.8          18.1 V EN058703
     K05N44X 5C2005 07 11.37575 23 01 33.85 -10 33 04.7                 EN058673
     K05N44X 5C2005 07 11.37911 23 01 32.63 -10 33 06.2                 EN058673
     K05N44X  C2005 07 11.38050 23 01 31.78 -10 33 08.4          18.1 R EN058734
     K05N44X  C2005 07 11.38056 23 01 32.01 -10 33 07.0          17.9 V EN058703
     K05N44X  C2005 07 11.38127 23 01 31.49 -10 33 08.7          17.8 R EN058734
     K05N44X 5C2005 07 11.38177 23 01 31.67 -10 33 07.3                 EN058673
     K05N44X  C2005 07 11.38205 23 01 31.25 -10 33 09.2          18.1 R EN058734
     K05N44X  C2005 07 11.38282 23 01 30.99 -10 33 09.5          18.0 R EN058734
     K05N44X  C2005 07 11.38880 23 01 29.02 -10 33 10.8          18.0 V EN058703
     K05N44X  C2005 07 11.39704 23 01 26.11 -10 33 15.1          18.0 V EN058703
     K05N44X  C2005 07 11.44656 23 01 08.32 -10 33 38.8          18.3 V EN058G96
     K05N44X  C2005 07 11.44867 23 01 07.53 -10 33 39.9          18.2 V EN058G96
     K05N44X  C2005 07 11.45076 23 01 06.78 -10 33 40.8          18.3 V EN058G96
     K05N44X  C2005 07 11.45286 23 01 06.02 -10 33 41.9          18.2 V EN058G96

Observer details:
673 Table Mountain Observatory, Wrightwood.  Observer J. Young.  0.6-m
    reflector + CCD.
703 Catalina Sky Survey.  Observers A. Odell, C. O'Hara.  Measurers
    E. C. Beshore, C. M. Casey, E. J. Christensen, G. J. Garradd, A. D. Grauer,
    R. E. Hill, S. M. Larson, R. H. McNaught.  0.68-m Schmidt + CCD.
734 Farpoint Observatory.  Observer G. Hug.  0.7-m reflector + CCD.
854 Sabino Canyon Observatory, Tucson.  Observer J. E. McGaha.  0.36-m f/10.0
    Schmidt-Cassegrain + CCD.
G96 Mt. Lemmon Survey.  Observer S. M. Larson.  Measurers E. C. Beshore,
    C. M. Casey, E. J. Christensen, G. J. Garradd, A. D. Grauer, R. E. Hill,
    S. M. Larson, R. H. McNaught.  1.5-m reflector + CCD.
H06 New Mexico Skies Observatory.  Observer R. Hutsebaut.  0.25-m reflector
    + CCD.

Orbital elements:
2005 NX44
Epoch 2005 July 9.0 TT = JDT 2453560.5                  MPC
M  22.11373              (2000.0)            P               Q
n   0.35414372     Peri.  213.31120     -0.87077485     -0.16635402
a   1.9785621      Node   309.51998     +0.46593602     -0.57970402
e   0.8960478      Incl.   36.85536     -0.15701839     -0.79766509
P   2.78           H   17.3           G   0.15
From 30 observations 2005 July 10-11.

Ephemeris:
2005 NX44                a,e,i = 1.98, 0.90, 37                  q = 0.2057
Date    TT    R. A. (2000) Decl.     Delta      r     Elong.  Phase     V
2005 07 09    23 15.48   -10 13.4    0.556    1.387   120.9    39.0    18.3
2005 07 19    22 16.49   -11 28.0    0.583    1.529   144.5    22.7    18.1
2005 07 29    21 22.43   -12 14.3    0.658    1.662   166.4     8.2    18.1
2005 08 08    20 40.44   -12 34.1    0.777    1.786   171.6     4.8    18.4
2005 08 18    20 11.68   -12 39.2    0.933    1.903   156.2    12.4    19.3
2005 08 28    19 53.77   -12 38.5    1.116    2.014   142.5    17.8    20.0
2005 09 07    19 43.84   -12 35.6    1.320    2.119   130.6    21.2    20.6
2005 09 17    19 39.65   -12 30.7    1.537    2.218   120.1    23.1    21.1
2005 09 27    19 39.55   -12 23.4    1.764    2.313   110.4    24.0    21.5
2005 10 07    19 42.43   -12 12.8    1.996    2.402   101.4    24.1    21.8

Timothy B. Spahr             (C) Copyright 2005 MPC           M.P.E.C. 2005-N58

Read MPEC 2005-N57 Read MPEC 2005-N59


Our Web policy. Index to the CBAT/MPC/ICQ pages.


Valid HTML 4.01!